{"data":{"norad_id":52760,"epoch":"2026-09-20T21:51:23.717088Z","epoch_age_seconds":96211,"freshness":"FRESH","line1":"1 52760U 22057AE  26263.91069117  .00003821  00000+0  14209-3 0  9991","line2":"2 52760  97.6741  46.5656 0008981 140.5319 219.6576 15.28136778239779","mean_motion":15.28136778,"eccentricity":0.0008981,"inclination_deg":97.6741,"raan_deg":46.5656,"arg_perigee_deg":140.5319,"mean_anomaly_deg":219.6576,"bstar":0.00014209,"rev_number":23977,"period_min":94.232402539559,"perigee_km":475.22187425033,"apogee_km":487.54294301211,"semimajor_km":6859.5194086312,"source":"CELESTRAK","updated_at":"2026-09-21T09:00:08.718284Z"}}